TITAN 3C TRANSTAGE DEB, 1653

Orbit data source: Space-Track

TITAN 3C TRANSTAGE DEB, 1653 is space debris in LEO originally from a launch on Fri, 15 Oct 1965 UTC launched from the Air Force Eastern Test Range (AFETR). Debris objects in space refer to the collection of defunct objects orbiting the Earth. Examples of debris include non-operational satellites, rocket bodies, and fragments generated from explosions, collisions, or faulty payload assembly.

Loading next visibility...
TITAN 3C TRANSTAGE DEB details
Identifier
1653, 1965-082Q
Orbit
LEO
Last TLE update20 hours ago
Origin
Flag of USUSAF SSD (US)
ManufacturerUnknown
MissionSpacecraft
Bus & MotorUnknown
MassUnknown
Launch date (UTC)
1965-10-15 (59 years ago)
Launch vehicleUnknown
Launch site
Air Force Eastern Test Range (AFETR)
Object type
Payload
Rocket body
Debris
Shape & HBRUnknown
Radar Cross Section0.610 m², Medium (>0.1 m² and < 1m²)

Expand to show TLE details & history

TLE from 20 hours ago
0 TITAN 3C TRANSTAGE DEB
1 01653U 65082Q   24355.81257714  .00000936  00000-0  16724-3 0  9991
2 01653  32.1175 147.8662 0041064 177.2207 182.8671 14.63699217131816
Epoch: 2024-12-20T19:30Z
Definitive object data (Epoch: 2024-12-20T19:30:06.664Z)
Latitude-0.00006°
Longitude125.46563°
Altitude708.848 km
Speed7.488 km/s
True Right ascension09h 51m 27s
True Declination0° 00' 00"
Sunlit
Object was in full shadow at TLE epoch
Visualization TLE readout
Latitude27.38311°
Longitude-114.67712°
Altitude667.672 km
Speed7.535 km/s
Apparent Right ascension21h 14m 20s
Apparent Declination-10° 26' 41"
Sunlit
Object is in daylight
Visualization observer readout
Local Sidereal Time14:43:57
Azimuth93.266° ESE
Elevation-12.476°
Doppler factor1
Orbital elements
Apogee altitude713.858 km
Perigee altitude655.851 km
Semi-major axis7,062.991 km
Eccentricity0.0041064
Inclination32.1175°
RAAN147.8662°
Arg. of periapsis177.2207°
True anomaly182.84368°
Mean anomaly182.8671°
Eccentric anomaly182.85538°
Mean motion3.65645 °/min
BSTAR0.00016724
Orbital period98.46 mins
Loading maneuver chart data...

TITAN 3C TRANSTAGE DEB Visibility forecast

Observer location: undefined°, undefined

Span
Click to sort rows by Start time (UTC) header in descending order
Start Az.
Max El. time (UTC)
Max El. Az.
Max El.
End time (UTC)
End Az.
7 mins2024-12-21 17:10:37.314Z241.304° WSW2024-12-21 17:13:37.314Z194.861° SSW26.998°2024-12-21 17:17:37.314Z129.414° SE
5 mins2024-12-21 18:55:37.314Z228.852° WSW2024-12-21 18:57:37.314Z199.957° SSW16.762°2024-12-21 19:00:37.314Z160.704° S
6 mins2024-12-22 14:20:37.314Z206.353° SW2024-12-22 14:22:37.314Z174.661° S23.192°2024-12-22 14:26:37.314Z114.822° SE
|